Location: Brusselsch Zeekanaal
(50.8667°N, 4.3667°E)
Time: 23:17:14
(UTC+00:00)

Cosmos 1153 Rocket - Visible Passes

Search period start: 15 February 2026 00:00
Search period end: 25 February 2026 00:00
Orbit: 952 x 1006 km, 82.9° (Epoch: 14 February)

Date Brightness Start Highest point End Pass type
(mag) Time Alt. Az. Time Alt. Az. Time Alt. Az.
15 Feb 5.6 04:41:54 10° SSE 04:47:53 46° E 04:53:48 10° NNE visible
16 Feb 7.3 03:26:26 10° ESE 03:29:47 15° ENE 03:33:07 10° NE visible
16 Feb 4.7 05:07:54 10° S 05:14:12 77° E 05:20:28 10° NNE visible
16 Feb 7.2 17:45:29 10° NW 17:49:44 20° W 17:53:57 10° WSW visible
17 Feb 6.6 03:50:44 10° SE 03:55:44 26° E 04:00:43 10° NNE visible
17 Feb 4.5 05:34:25 10° SSW 05:40:41 66° WNW 05:46:56 10° N visible
17 Feb 7.7 18:14:00 10° WNW 18:15:35 11° WNW 18:17:10 10° W visible
18 Feb 5.7 04:16:00 10° SSE 04:21:51 42° E 04:27:41 10° NNE visible
18 Feb 4.9 06:01:29 10° SW 06:07:22 40° WNW 06:13:13 10° N visible
19 Feb 7.3 03:00:56 10° ESE 03:03:49 14° ENE 03:06:42 10° NE visible
19 Feb 4.8 04:41:53 10° S 04:48:09 71° E 04:54:22 10° NNE visible
20 Feb 6.6 03:24:57 10° SE 03:29:45 23° E 03:34:29 10° NNE visible
20 Feb 4.4 05:08:20 10° SSW 05:14:37 71° WNW 05:20:52 10° N visible
20 Feb 7.5 17:47:20 10° NW 17:49:37 12° WNW 17:51:54 10° W visible
21 Feb 5.8 03:50:06 10° SSE 03:55:50 39° E 04:01:32 10° NNE visible
21 Feb 4.8 05:35:18 10° SW 05:41:15 43° WNW 05:47:10 10° N visible
22 Feb 7.3 02:35:32 10° E 02:37:51 12° ENE 02:40:11 10° NE visible
22 Feb 4.9 04:15:54 10° S 04:22:06 65° E 04:28:15 10° NNE visible
22 Feb 5.4 06:02:52 10° WSW 06:08:05 27° WNW 06:13:17 10° N visible
23 Feb 6.7 02:59:13 10° SE 03:03:45 21° E 03:08:15 10° NNE visible
23 Feb 4.4 04:42:14 10° SSW 04:48:32 77° W 04:54:47 10° N visible
24 Feb 5.9 03:24:12 10° SSE 03:29:49 36° E 03:35:22 10° NNE visible
24 Feb 4.7 05:09:08 10° SW 05:15:08 47° WNW 05:21:07 10° N visible
